sat.trackr.live / text

‹ back to catalog

STARLINK-34651

NORAD 64861 · 2025-152V

PAYLOAD ACTIVE UNKNOWN

§ Identity

Operator
Country
US
Launch date
2025-07-19
Launch site
AFWTR
Launch vehicle
Mass (kg)
RCS (m²)

Purposes: comms

External: N2YO · Heavens-Above · Gunter

§ Orbital elements

Epoch: 2026-05-25T02:24:27.165024Z

Period
95.64 min
Inclination
97.4517°
Eccentricity
0.0002065
Mean motion
15.05661941 rev/d
Perigee alt
548.0 km
Apogee alt
550.9 km
Semi-major
6,927.6 km
B*
3.2436e-4
RAAN
0.4445°
Arg perigee
86.7826°
Mean anomaly
273.3638°
Rev number
4,691

§ Raw data

STARLINK-346511 64861U 25152V   26145.10031441  .00004626  00000+0  32436-3 0  99902 64861  97.4517   0.4445 0002065  86.7826 273.3638 15.05661941 46917

JSON: /api/v1/satellites/64861 · /tle

For live sub-satellite position, see the globe view (requires WebGL).

§ Visibility from observer

Set your observer location to see the next 7 days of passes ≥ 10°. The values pass through the URL so the page stays shareable.

No JS? Fill the form by hand. The geolocation button needs JavaScript.